• In Hungary
  • List of Countries
  • For 7 days
  • Water Temperature
  • Satellite Maps
  • Weather Map
  • News
  • Weather Widgets
  • user-avatar
    Login

    Hourly Weather Turka

    Today, 21 February, Wednesday

    Time Temperature Precipitation Wind Pressure Humidity
    00:00 -14°C° 0.2 mm 5 mps 719 mmHg 90%
    01:00 -14°C° 0 mm 5 mps 719 mmHg 90%
    02:00 -14°C° 0.1 mm 5 mps 719 mmHg 90%
    03:00 -15°C° 0.1 mm 5 mps 719 mmHg 89%
    04:00 -17°C° 0.1 mm 5 mps 719 mmHg 89%
    05:00 -17°C° 0 mm 4 mps 719 mmHg 89%
    06:00 -17°C° 0 mm 4 mps 719 mmHg 90%
    07:00 -17°C° 0 mm 3 mps 719 mmHg 91%
    08:00 -17°C° 0 mm 3 mps 719 mmHg 88%
    09:00 -16°C° 0 mm 3 mps 719 mmHg 86%
    10:00 -15°C° 0 mm 3 mps 719 mmHg 84%
    11:00 -15°C° 0 mm 3 mps 719 mmHg 83%
    12:00 -14°C° 0 mm 3 mps 719 mmHg 82%
    13:00 -14°C° 0 mm 3 mps 718 mmHg 81%
    14:00 -14°C° 0 mm 3 mps 718 mmHg 82%
    15:00 -14°C° 0 mm 3 mps 718 mmHg 83%
    16:00 -15°C° 0 mm 3 mps 718 mmHg 84%
    17:00 -15°C° 0 mm 2 mps 718 mmHg 87%
    18:00 -16°C° 0 mm 2 mps 718 mmHg 89%
    19:00 -17°C° 0 mm 2 mps 718 mmHg 92%
    20:00 -17°C° 0 mm 2 mps 718 mmHg 92%
    21:00 -18°C° 0 mm 2 mps 718 mmHg 92%
    22:00 -18°C° 0 mm 2 mps 718 mmHg 92%
    23:00 -18°C° 0 mm 2 mps 718 mmHg 92%

    Tomorrow, 22 February, Thursday

    Time Temperature Precipitation Wind Pressure Humidity
    00:00 -19°C° 0 mm 2 mps 718 mmHg 92%
    01:00 -19°C° 0 mm 2 mps 718 mmHg 93%
    02:00 -19°C° 0 mm 2 mps 718 mmHg 93%
    03:00 -19°C° 0 mm 2 mps 718 mmHg 93%
    04:00 -20°C° 0 mm 2 mps 718 mmHg 94%
    05:00 -20°C° 0 mm 2 mps 718 mmHg 94%
    06:00 -20°C° 0 mm 2 mps 718 mmHg 94%
    07:00 -20°C° 0 mm 2 mps 718 mmHg 95%
    08:00 -18°C° 0 mm 2 mps 718 mmHg 91%
    09:00 -16°C° 0 mm 2 mps 718 mmHg 88%
    10:00 -15°C° 0 mm 2 mps 718 mmHg 85%
    11:00 -14°C° 0.1 mm 2 mps 718 mmHg 83%
    12:00 -14°C° 0.1 mm 2 mps 718 mmHg 81%
    13:00 -13°C° 0.1 mm 2 mps 717 mmHg 79%
    14:00 -14°C° 0.1 mm 2 mps 717 mmHg 80%
    15:00 -14°C° 0.1 mm 2 mps 718 mmHg 81%
    16:00 -14°C° 0.1 mm 2 mps 718 mmHg 83%
    17:00 -16°C° 0 mm 2 mps 718 mmHg 86%
    18:00 -18°C° 0 mm 2 mps 719 mmHg 89%
    19:00 -18°C° 0 mm 1 mps 719 mmHg 92%
    20:00 -18°C° 0 mm 1 mps 720 mmHg 92%
    21:00 -18°C° 0 mm 1 mps 720 mmHg 93%
    22:00 -18°C° 0 mm 1 mps 721 mmHg 93%
    23:00 -19°C° 0 mm 1 mps 721 mmHg 93%

    Day after tomorrow, 23 February, Friday

    Time Temperature Precipitation Wind Pressure Humidity
    00:00 -19°C° 0 mm 1 mps 721 mmHg 92%
    01:00 -19°C° 0 mm 1 mps 722 mmHg 92%
    02:00 -19°C° 0 mm 1 mps 722 mmHg 92%
    03:00 -20°C° 0 mm 1 mps 722 mmHg 92%
    04:00 -20°C° 0 mm 1 mps 722 mmHg 92%
    05:00 -23°C° 0 mm 2 mps 722 mmHg 91%
    06:00 -24°C° 0 mm 2 mps 722 mmHg 90%
    07:00 -24°C° 0 mm 2 mps 722 mmHg 89%
    08:00 -20°C° 0 mm 2 mps 722 mmHg 85%
    09:00 -17°C° 0 mm 2 mps 722 mmHg 81%
    10:00 -15°C° 0 mm 2 mps 722 mmHg 78%
    11:00 -14°C° 0 mm 2 mps 722 mmHg 76%
    12:00 -13°C° 0 mm 2 mps 722 mmHg 74%
    13:00 -10°C° 0 mm 2 mps 722 mmHg 71%
    14:00 -12°C° 0 mm 2 mps 721 mmHg 75%
    15:00 -10°C° 0 mm 1 mps 721 mmHg 79%
    16:00 -10°C° 0 mm 1 mps 721 mmHg 82%
    17:00 -14°C° 0 mm 2 mps 722 mmHg 84%
    18:00 -16°C° 0 mm 2 mps 722 mmHg 86%
    19:00 -18°C° 0 mm 2 mps 722 mmHg 88%
    20:00 -18°C° 0 mm 2 mps 722 mmHg 88%
    21:00 -19°C° 0 mm 2 mps 722 mmHg 88%
    22:00 -19°C° 0 mm 2 mps 722 mmHg 88%
    23:00 -19°C° 0 mm 2 mps 722 mmHg 87%

    24 February, Saturday

    Time Temperature Precipitation Wind Pressure Humidity
    00:00 -19°C° 0 mm 2 mps 722 mmHg 85%
    01:00 -19°C° 0 mm 2 mps 722 mmHg 84%
    02:00 -19°C° 0 mm 2 mps 722 mmHg 84%
    03:00 -18°C° 0 mm 2 mps 722 mmHg 84%
    04:00 -18°C° 0 mm 2 mps 722 mmHg 85%
    05:00 -18°C° 0 mm 2 mps 722 mmHg 86%
    06:00 -18°C° 0 mm 2 mps 722 mmHg 87%
    07:00 -17°C° 0 mm 2 mps 722 mmHg 88%
    08:00 -15°C° 0 mm 2 mps 722 mmHg 87%
    09:00 -13°C° 0 mm 2 mps 722 mmHg 86%
    10:00 -9°C° 0 mm 2 mps 722 mmHg 84%
    11:00 -8°C° 0.1 mm 2 mps 721 mmHg 84%
    12:00 -7°C° 0.1 mm 2 mps 721 mmHg 83%
    13:00 -6°C° 0.1 mm 2 mps 720 mmHg 83%
    14:00 -6°C° 0.1 mm 1 mps 720 mmHg 84%
    15:00 -6°C° 0.1 mm 1 mps 720 mmHg 85%
    16:00 -6°C° 0.1 mm 1 mps 720 mmHg 86%
    17:00 -8°C° 0 mm 1 mps 720 mmHg 88%
    18:00 -10°C° 0 mm 1 mps 720 mmHg 90%
    19:00 -11°C° 0 mm 1 mps 720 mmHg 92%
    20:00 -12°C° 0 mm 1 mps 720 mmHg 91%
    21:00 -13°C° 0 mm 1 mps 720 mmHg 90%
    22:00 -13°C° 0 mm 1 mps 719 mmHg 90%
    23:00 -13°C° 0 mm 1 mps 719 mmHg 89%

    25 February, Sunday

    Time Temperature Precipitation Wind Pressure Humidity
    00:00 -14°C° 0 mm 1 mps 719 mmHg 89%
    01:00 -14°C° 0 mm 1 mps 719 mmHg 88%
    02:00 -14°C° 0 mm 1 mps 719 mmHg 87%
    03:00 -14°C° 0 mm 1 mps 719 mmHg 86%
    04:00 -14°C° 0 mm 1 mps 718 mmHg 86%
    05:00 -14°C° 0 mm 1 mps 718 mmHg 85%
    06:00 -14°C° 0 mm 1 mps 719 mmHg 85%
    07:00 -14°C° 0 mm 1 mps 719 mmHg 85%
    08:00 -12°C° 0 mm 1 mps 719 mmHg 83%
    09:00 -9°C° 0 mm 1 mps 719 mmHg 80%
    10:00 -6°C° 0 mm 1 mps 719 mmHg 78%
    11:00 -4°C° 0 mm 1 mps 718 mmHg 77%
    12:00 -3°C° 0 mm 1 mps 718 mmHg 77%
    13:00 -2°C° 0 mm 1 mps 717 mmHg 76%
    14:00 -3°C° 0 mm 1 mps 717 mmHg 79%
    15:00 -3°C° 0 mm 1 mps 717 mmHg 82%
    16:00 -4°C° 0 mm 1 mps 717 mmHg 85%
    17:00 -7°C° 0 mm 1 mps 717 mmHg 87%
    18:00 -8°C° 0 mm 1 mps 718 mmHg 89%
    19:00 -10°C° 0 mm 1 mps 718 mmHg 91%
    20:00 -11°C° 0 mm 1 mps 718 mmHg 90%
    21:00 -11°C° 0 mm 1 mps 718 mmHg 89%
    22:00 -11°C° 0 mm 1 mps 719 mmHg 88%
    23:00 -11°C° 0.1 mm 1 mps 719 mmHg 88%

    26 February, Monday

    Time Temperature Precipitation Wind Pressure Humidity
    00:00 -11°C° 0.1 mm 1 mps 719 mmHg 88%
    01:00 -13°C° 0.1 mm 2 mps 719 mmHg 88%
    02:00 -13°C° 0.1 mm 2 mps 720 mmHg 89%
    03:00 -13°C° 0.1 mm 3 mps 720 mmHg 91%
    04:00 -13°C° 0.1 mm 3 mps 720 mmHg 92%
    05:00 -14°C° 0 mm 3 mps 721 mmHg 92%
    06:00 -16°C° 0 mm 3 mps 721 mmHg 92%
    07:00 -17°C° 0 mm 3 mps 721 mmHg 92%
    08:00 -16°C° 0 mm 3 mps 721 mmHg 89%
    09:00 -15°C° 0 mm 3 mps 722 mmHg 86%
    10:00 -14°C° 0 mm 3 mps 722 mmHg 82%
    11:00 -14°C° 0 mm 3 mps 721 mmHg 81%
    12:00 -14°C° 0 mm 3 mps 721 mmHg 80%
    13:00 -13°C° 0 mm 3 mps 721 mmHg 79%
    14:00 -14°C° 0 mm 3 mps 721 mmHg 80%
    15:00 -14°C° 0 mm 3 mps 721 mmHg 82%
    16:00 -15°C° 0 mm 3 mps 722 mmHg 83%
    17:00 -16°C° 0 mm 3 mps 722 mmHg 86%
    18:00 -17°C° 0 mm 3 mps 723 mmHg 89%
    19:00 -18°C° 0 mm 3 mps 723 mmHg 91%
    20:00 -18°C° 0 mm 3 mps 723 mmHg 91%
    21:00 -18°C° 0 mm 3 mps 724 mmHg 92%
    22:00 -18°C° 0 mm 3 mps 724 mmHg 92%
    23:00 -19°C° 0 mm 3 mps 724 mmHg 92%
    Show more